DW1806 Weather Reports


Display with metric or nautical units.
time (UTC)temp
F
wind
direction
speed
MPH
gust
MPH
rain 1hr
in
rain 24hr
in
rain mn
in
humidity
%
barometer
mb
20260506212520 44 313 0.0 0.0 0.00 0.00 0.42 89 1009.6
20260506212016 44 298 0.0 0.0 0.00 0.00 0.42 89 1009.4
20260506211518 44 300 0.0 0.0 0.00 0.00 0.42 88 1009.2
20260506211013 45 273 0.0 0.0 0.00 0.00 0.42 88 1009.0
20260506210513 45 274 0.0 0.0 0.00 0.00 0.42 87 1008.9
20260506210015 46 312 0.0 0.0 0.00 0.00 0.42 87 1008.9
20260506205512 46 268 0.0 0.0 0.00 0.00 0.42 86 1008.9
20260506205011 47 316 0.0 0.0 0.00 0.00 0.42 85 1008.7
20260506204511 48 298 0.0 0.0 0.00 0.00 0.42 84 1008.6
20260506204014 49 288 0.0 0.0 0.00 0.00 0.42 83 1008.6
20260506203510 50 250 0.0 0.0 0.00 0.00 0.42 81 1008.5
20260506203009 51 259 0.0 0.0 0.00 0.00 0.42 80 1008.3
20260506202509 51 209 0.0 0.0 0.00 0.00 0.42 80 1008.2
20260506202009 51 192 0.0 0.0 0.00 0.00 0.42 80 1008.1
20260506201510 51 231 0.0 0.0 0.00 0.00 0.42 80 1008.1
20260506201009 51 205 0.0 0.0 0.00 0.00 0.42 79 1008.2
20260506200508 51 238 0.0 0.0 0.00 0.00 0.42 80 1008.2
20260506200011 52 232 0.0 0.0 0.00 0.00 0.42 80 1008.3
20260506195508 52 233 0.0 0.0 0.00 0.00 0.42 80 1008.2
20260506195008 52 241 0.0 0.0 0.00 0.00 0.42 81 1008.1
20260506194508 51 222 0.0 0.0 0.00 0.00 0.42 81 1008.2
20260506194009 51 233 0.0 0.0 0.00 0.00 0.42 82 1008.3
20260506193508 51 227 0.0 0.0 0.00 0.00 0.42 82 1008.3
20260506193008 51 247 0.0 0.0 0.00 0.00 0.42 81 1008.2
20260506192508 51 264 0.0 0.0 0.00 0.00 0.42 82 1008.2
20260506192008 51 293 0.0 0.0 0.00 0.00 0.42 81 1008.2
20260506191510 51 293 0.0 0.0 0.00 0.00 0.42 81 1008.1
20260506191007 51 293 0.0 0.0 0.00 0.00 0.42 80 1008.2
20260506190507 52 293 0.0 0.0 0.00 0.00 0.42 80 1008.1
20260506190007 52 293 0.0 0.0 0.00 0.00 0.42 78 1008.0
20260506185506 52 293 0.0 0.0 0.00 0.00 0.42 78 1007.9
20260506185006 52 298 0.0 0.0 0.00 0.00 0.42 79 1008.0
20260506184506 52 298 0.0 0.0 0.00 0.00 0.42 80 1008.0
20260506184005 52 298 0.0 0.0 0.00 0.00 0.42 80 1008.0
20260506183505 52 298 0.0 0.0 0.00 0.00 0.42 82 1008.0
20260506183002 52 298 0.0 0.0 0.00 0.00 0.42 84 1008.0
20260506182501 51 298 0.0 0.0 0.00 0.00 0.42 83 1008.0
20260506182001 51 298 0.0 0.0 0.00 0.00 0.42 84 1008.0
20260506181502 51 298 0.0 0.0 0.00 0.00 0.42 85 1008.1
20260506181100 51 298 0.0 0.0 0.00 0.00 0.42 86 1008.1
20260506180559 50 298 0.0 0.0 0.00 0.00 0.42 86 1008.1
20260506180059 50 298 0.0 0.0 0.00 0.00 0.42 85 1008.1
20260506175559 50 298 0.0 0.0 0.00 0.00 0.42 87 1008.1
20260506175057 50 298 0.0 0.0 0.00 0.00 0.42 87 1008.1
20260506174608 50 73 0.0 0.0 0.00 0.00 0.42 88 1008.1
20260506174056 49 73 0.0 0.0 0.00 0.00 0.42 88 1008.1
20260506173558 49 73 0.0 0.0 0.00 0.00 0.42 88 1008.2
20260506173057 49 73 0.0 0.0 0.00 0.00 0.42 89 1008.1
20260506172554 49 73 0.0 0.0 0.00 0.00 0.42 89 1008.2
20260506172054 49 73 0.0 0.0 0.00 0.00 0.42 90 1008.3
20260506171604 49 73 0.0 0.0 0.00 0.00 0.42 90 1008.2
20260506171054 49 73 0.0 0.0 0.00 0.00 0.42 90 1008.3
20260506170553 49 73 0.0 0.0 0.00 0.00 0.42 90 1008.2
20260506170053 49 72 0.0 0.0 0.00 0.00 0.42 90 1008.2
20260506165555 49 72 0.0 0.0 0.00 0.00 0.42 90 1008.2
20260506165053 49 72 0.0 0.0 0.00 0.00 0.42 91 1008.1
20260506164557 49 72 0.0 0.0 0.00 0.00 0.42 91 1008.2
20260506164051 49 72 0.0 0.0 0.00 0.00 0.42 91 1008.1
20260506163553 49 72 0.0 0.0 0.00 0.00 0.42 92 1008.2
20260506163104 49 72 0.0 0.0 0.00 0.00 0.42 91 1007.9
20260506162553 49 72 0.0 0.0 0.00 0.00 0.42 92 1007.9
20260506162052 49 72 0.0 0.0 0.00 0.00 0.42 92 1008.0
20260506161550 48 74 0.0 0.0 0.00 0.00 0.42 91 1008.2
20260506161050 48 74 0.0 0.0 0.00 0.00 0.42 91 1008.2
20260506160549 48 74 0.0 0.0 0.00 0.00 0.42 91 1008.2
20260506160051 48 74 0.0 0.0 0.00 0.00 0.42 91 1008.1
20260506155548 48 74 0.0 0.0 0.00 0.00 0.42 92 1008.1
20260506155048 48 74 0.0 0.0 0.00 0.00 0.42 92 1008.1
20260506154552 49 74 0.0 0.0 0.00 0.00 0.42 92 1008.0
20260506154050 49 74 0.0 0.0 0.00 0.00 0.42 92 1008.0
20260506153547 48 74 0.0 0.0 0.00 0.00 0.42 93 1008.0
20260506153050 48 74 0.0 0.0 0.00 0.00 0.42 93 1008.0
20260506152546 48 74 0.0 0.0 0.00 0.00 0.42 93 1007.9
20260506152045 48 74 0.0 0.0 0.00 0.00 0.42 93 1007.8
20260506151545 48 51 0.0 0.0 0.00 0.00 0.42 93 1007.7
20260506151046 48 51 0.0 0.0 0.00 0.00 0.42 93 1007.6
20260506150544 48 51 0.0 0.0 0.00 0.00 0.42 93 1007.6
20260506150044 48 61 0.0 0.0 0.00 0.00 0.42 94 1007.7
20260506145546 47 61 0.0 0.0 0.00 0.00 0.42 93 1007.7
20260506145043 48 61 0.0 0.0 0.00 0.00 0.42 93 1007.7
20260506144545 48 113 0.0 0.0 0.00 0.00 0.42 94 1007.5
20260506144044 47 118 0.0 0.0 0.00 0.00 0.42 94 1007.5
20260506143543 47 119 0.0 0.0 0.00 0.00 0.42 94 1007.4
20260506143043 47 119 0.0 0.0 0.00 0.00 0.42 93 1007.3
20260506142545 47 119 0.0 0.0 0.00 0.00 0.42 94 1007.6
20260506142042 47 119 0.0 0.0 0.00 0.00 0.42 93 1007.6
20260506141542 47 119 0.0 0.0 0.00 0.00 0.42 94 1007.6
20260506141043 46 119 0.0 0.0 0.00 0.00 0.42 94 1007.5
20260506140544 46 119 0.0 0.0 0.00 0.00 0.42 93 1007.4
20260506140042 46 119 0.0 0.0 0.00 0.00 0.42 93 1007.4
20260506135541 46 119 0.0 0.0 0.00 0.00 0.41 94 1007.4
20260506135041 46 119 0.0 0.0 0.00 0.00 0.41 94 1007.3
20260506134542 46 119 0.0 0.0 0.00 0.00 0.41 93 1007.3
20260506134043 46 119 0.0 0.0 0.00 0.00 0.41 93 1007.2
20260506133541 46 119 0.0 0.0 0.00 0.00 0.41 93 1007.0
20260506133046 46 119 0.0 0.0 0.00 0.00 0.41 93 1006.9
20260506132541 46 119 0.0 0.0 0.00 0.00 0.41 93 1007.0
20260506132040 45 119 0.0 0.0 0.00 0.00 0.41 93 1007.0
20260506131541 45 119 0.0 0.0 0.00 0.00 0.41 93 1006.9
20260506131040 45 119 0.0 0.0 0.00 0.00 0.41 93 1007.0
20260506130540 45 119 0.0 0.0 0.00 0.00 0.41 93 1006.9
20260506130041 45 119 0.0 0.0 0.00 0.00 0.41 94 1007.0
20260506125540 45 119 0.0 0.0 0.00 0.00 0.41 93 1006.8
20260506125039 45 119 0.0 0.0 0.00 0.00 0.41 93 1006.9
20260506124543 45 119 0.0 0.0 0.00 0.00 0.41 94 1006.8
20260506124039 45 119 0.0 0.0 0.00 0.00 0.41 94 1006.9
20260506123539 45 119 0.0 0.0 0.00 0.00 0.40 94 1007.0
20260506123039 45 119 0.0 0.0 0.00 0.00 0.40 94 1006.9
20260506122538 45 94 0.0 0.0 0.00 0.00 0.40 93 1006.7
20260506122038 45 84 0.0 0.0 0.00 0.00 0.40 94 1006.6
20260506121547 45 84 0.0 0.0 0.00 0.00 0.40 94 1006.5
20260506121039 45 84 0.0 0.0 0.00 0.00 0.40 94 1006.6
20260506120538 45 111 0.0 0.0 0.00 0.00 0.40 93 1006.5
20260506120041 45 84 0.0 0.0 0.00 0.00 0.39 93 1006.5
20260506115540 45 86 0.0 0.0 0.00 0.00 0.39 93 1006.4
20260506115038 44 88 0.0 0.0 0.00 0.00 0.39 93 1006.3
20260506114537 45 76 0.0 0.0 0.00 0.00 0.39 93 1006.3
20260506114036 45 92 0.0 0.0 0.00 0.00 0.39 94 1006.3
20260506113536 45 103 0.0 0.0 0.00 0.00 0.39 94 1006.4
20260506113036 45 90 0.0 0.0 0.00 0.00 0.39 94 1006.2
20260506112535 46 90 0.0 0.0 0.00 0.00 0.38 94 1006.3
20260506112038 46 89 0.0 0.0 0.00 0.00 0.38 94 1006.1
20260506111536 46 92 0.0 0.0 0.00 0.00 0.38 94 1006.2
20260506111035 46 91 0.0 0.0 0.00 0.00 0.38 94 1006.5
20260506110539 46 86 0.0 0.0 0.00 0.00 0.37 94 1006.5
20260506110037 46 64 0.0 0.0 0.00 0.00 0.37 94 1006.6
20260506105535 46 64 0.0 0.0 0.00 0.00 0.37 94 1006.6
20260506105034 46 64 0.0 0.0 0.00 0.00 0.37 94 1006.6
20260506104535 46 64 0.0 0.0 0.00 0.00 0.36 94 1006.4
20260506104034 46 64 0.0 0.0 0.00 0.00 0.36 94 1006.4
20260506103534 46 64 0.0 0.0 0.00 0.00 0.36 94 1006.2
20260506103034 46 64 0.0 0.0 0.00 0.00 0.36 94 1006.3
20260506102534 46 64 0.0 0.0 0.00 0.00 0.36 94 1006.1
20260506102036 45 64 0.0 0.0 0.00 0.00 0.36 94 1005.8
20260506101533 45 63 0.0 0.0 0.00 0.00 0.36 94 1005.8
20260506101032 45 63 0.0 0.0 0.00 0.00 0.35 94 1006.0
20260506100532 45 59 0.0 0.0 0.00 0.00 0.35 94 1006.1
20260506100036 45 58 0.0 0.0 0.00 0.00 0.35 94 1006.4
20260506095532 45 58 0.0 0.0 0.00 0.00 0.34 94 1006.5
20260506095033 45 57 0.0 0.0 0.00 0.00 0.34 94 1006.7
20260506094532 45 32 0.0 0.0 0.00 0.00 0.34 94 1006.7
20260506094032 46 64 0.0 0.0 0.00 0.00 0.33 94 1006.7
20260506093530 46 55 0.0 0.0 0.00 0.00 0.33 94 1006.6
20260506093031 46 59 0.0 0.0 0.00 0.00 0.32 94 1006.6
20260506092532 46 42 0.0 0.0 0.00 0.00 0.32 94 1006.5
20260506092030 46 26 0.0 0.0 0.00 0.00 0.32 94 1006.6
20260506091529 46 45 0.0 0.0 0.00 0.00 0.31 94 1006.5
20260506091029 46 36 0.0 0.0 0.00 0.00 0.31 94 1006.4
20260506090527 46 26 0.0 0.0 0.00 0.00 0.30 94 1006.4
20260506090027 47 43 0.0 0.0 0.00 0.00 0.30 94 1006.5
20260506085527 47 12 0.0 0.0 0.00 0.00 0.28 94 1006.6
20260506085026 47 52 0.0 0.0 0.00 0.00 0.28 94 1006.3
20260506084535 47 79 0.0 0.0 0.00 0.00 0.28 94 1006.5
20260506084026 47 75 0.0 0.0 0.00 0.00 0.28 94 1006.4
20260506083529 47 46 0.0 0.0 0.00 0.00 0.28 94 1006.0
20260506083031 47 42 0.0 0.0 0.00 0.00 0.27 94 1006.1
20260506082528 47 52 0.0 0.0 0.00 0.00 0.26 94 1006.0
20260506082024 47 46 0.0 0.0 0.00 0.00 0.26 94 1006.1
20260506081524 47 34 0.0 0.0 0.00 0.00 0.26 94 1006.2
20260506081024 47 35 0.0 0.0 0.00 0.00 0.25 94 1006.0
20260506080523 47 53 0.0 0.0 0.00 0.00 0.25 94 1006.0
20260506073524 48 41 0.0 0.0 0.00 0.00 0.22 94 1006.3
20260506073020 48 41 0.0 0.0 0.00 0.00 0.22 94 1006.2
20260506072520 48 41 0.0 0.0 0.00 0.00 0.21 94 1006.2
20260506072018 48 44 0.0 0.0 0.00 0.00 0.21 94 1006.3
20260506071520 48 44 0.0 0.0 0.00 0.00 0.20 94 1006.2
20260506071018 48 44 0.0 0.0 0.00 0.00 0.20 94 1006.3
20260506070517 48 44 0.0 0.0 0.00 0.00 0.20 94 1006.3
20260506062516 48 47 0.0 0.0 0.00 0.00 0.16 93 1006.6
20260506062015 48 59 0.0 0.0 0.00 0.00 0.16 93 1006.4
20260506061515 48 61 0.0 0.0 0.00 0.00 0.16 93 1006.4
20260506061015 49 61 0.0 0.0 0.00 0.00 0.15 93 1006.3
20260506060513 49 61 0.0 0.0 0.00 0.00 0.15 93 1006.6
20260506051009 49 247 0.0 0.0 0.00 0.00 0.10 93 1007.5
20260506050510 49 247 0.0 0.0 0.00 0.00 0.10 93 1007.3
20260506045007 49 247 0.0 0.0 0.00 0.00 0.06 93 1007.3
20260506044513 49 247 0.0 0.0 0.00 0.00 0.05 93 1007.1
20260506044006 49 247 0.0 0.0 0.00 0.00 0.04 93 1007.1
20260506043505 49 247 0.0 0.0 0.00 0.00 0.03 93 1007.2
20260506043005 49 247 0.0 0.0 0.00 0.00 0.02 93 1006.9
20260506042506 49 247 0.0 0.0 0.00 0.00 0.02 93 1006.9
20260506042005 49 247 0.0 0.0 0.00 0.00 0.01 93 1006.9
20260506041504 49 247 0.0 0.0 0.00 0.00 0.00 93 1006.9
20260506041003 49 247 0.0 0.0 0.00 0.00 0.00 92 1006.8
20260506040503 49 247 0.0 0.0 0.00 0.00 0.00 92 1007.0
20260506040002 49 247 0.0 0.0 0.00 0.00 0.00 92 1006.9
20260506035504 49 247 0.0 0.0 0.00 0.00 0.68 92 1006.7
20260506035002 49 247 0.0 0.0 0.00 0.00 0.68 92 1006.6
20260506034503 49 247 0.0 0.0 0.00 0.00 0.68 92 1006.8
20260506034000 49 247 0.0 0.0 0.00 0.00 0.68 92 1006.9
20260506033501 49 247 0.0 0.0 0.00 0.00 0.68 92 1006.7
20260506033000 49 247 0.0 0.0 0.00 0.00 0.67 92 1006.7
20260506032502 49 247 0.0 0.0 0.00 0.00 0.67 92 1007.1
20260506032002 49 247 0.0 0.0 0.00 0.00 0.67 92 1007.1
20260506031603 49 247 0.0 0.0 0.00 0.00 0.66 92 1006.9
20260506031101 49 247 0.0 0.0 0.00 0.00 0.66 92 1007.3
20260506030559 49 247 0.0 0.0 0.00 0.00 0.66 92 1007.1
20260506030100 49 247 0.0 0.0 0.00 0.00 0.65 92 1007.1
20260506025559 49 247 0.0 0.0 0.00 0.00 0.64 92 1007.1
20260506025059 49 247 0.0 0.0 0.00 0.00 0.64 92 1007.1
20260506024609 49 247 0.0 0.0 0.00 0.00 0.63 92 1007.2
20260506024059 49 247 0.0 0.0 0.00 0.00 0.62 92 1007.5
20260506023600 49 247 0.0 0.0 0.00 0.00 0.62 92 1007.4
20260506023112 49 247 0.0 0.0 0.00 0.00 0.61 92 1007.4
20260506022559 49 247 0.0 0.0 0.00 0.00 0.60 92 1007.4
20260506022103 49 247 0.0 0.0 0.00 0.00 0.60 92 1007.4
20260506021602 49 247 0.0 0.0 0.00 0.00 0.60 92 1007.5
20260506021059 49 247 0.0 0.0 0.00 0.00 0.60 92 1007.4
20260506020600 49 247 0.0 0.0 0.00 0.00 0.60 92 1007.2
20260506020058 49 247 0.0 0.0 0.00 0.00 0.59 92 1007.2
20260506015558 49 247 0.0 0.0 0.00 0.00 0.59 91 1007.2
20260506015058 49 247 0.0 0.0 0.00 0.00 0.59 92 1007.3
20260506014558 49 247 0.0 0.0 0.00 0.00 0.59 91 1007.5
20260506014101 49 247 0.0 0.0 0.00 0.00 0.59 91 1007.6
20260506013557 49 247 0.0 0.0 0.00 0.00 0.57 91 1007.6
20260506013104 49 247 0.0 0.0 0.00 0.00 0.57 91 1007.6
20260506012558 49 247 0.0 0.0 0.00 0.00 0.57 91 1007.7
20260506012056 49 247 0.0 0.0 0.00 0.00 0.57 91 1007.4
20260506011604 49 279 0.0 0.0 0.00 0.00 0.57 91 1007.3
20260506011055 49 279 0.0 0.0 0.00 0.00 0.57 91 1007.3
20260506010555 49 279 0.0 0.0 0.00 0.00 0.57 91 1007.2
20260506010055 49 279 0.0 0.0 0.00 0.00 0.57 91 1007.2
20260506005554 49 279 0.0 0.0 0.00 0.00 0.56 91 1007.4
20260506005055 49 279 0.0 0.0 0.00 0.00 0.56 91 1007.3
20260506004558 49 279 0.0 0.0 0.00 0.00 0.56 90 1007.4
20260506004054 50 279 0.0 0.0 0.00 0.00 0.56 90 1007.5
20260506003554 50 279 0.0 0.0 0.00 0.00 0.54 90 1007.5
20260506003054 49 279 0.0 0.0 0.00 0.00 0.53 90 1007.5
20260506002552 49 279 0.0 0.0 0.00 0.00 0.52 90 1007.2
20260506002052 49 279 0.0 0.0 0.00 0.00 0.51 90 1007.2
20260506001556 49 279 0.0 0.0 0.00 0.00 0.50 90 1007.0
20260506001051 49 279 0.0 0.0 0.00 0.00 0.48 90 1007.0
20260506000551 49 279 0.0 0.0 0.00 0.00 0.48 90 1007.0
20260506000057 50 279 0.0 0.0 0.00 0.00 0.46 90 1006.9
20260505235549 49 279 0.0 0.0 0.00 0.00 0.44 90 1007.0
20260505235050 49 279 0.0 0.0 0.00 0.00 0.43 90 1006.9
20260505234549 49 298 0.0 0.0 0.00 0.00 0.42 89 1006.6
20260505234049 49 298 0.0 0.0 0.00 0.00 0.40 89 1006.7
20260505233551 49 298 0.0 0.0 0.00 0.00 0.40 89 1006.4
20260505233053 50 298 0.0 0.0 0.00 0.00 0.39 89 1006.7
20260505232548 50 304 0.0 0.0 0.00 0.00 0.38 89 1006.4
20260505232050 50 304 0.0 0.0 0.00 0.00 0.38 90 1006.2
20260505231549 50 304 0.0 0.0 0.00 0.00 0.37 89 1006.2
20260505231047 50 304 0.0 0.0 0.00 0.00 0.36 89 1006.2
20260505230551 50 304 0.0 0.0 0.00 0.00 0.36 89 1006.4
20260505230111 50 304 0.0 0.0 0.00 0.00 0.34 89 1006.4
20260505225547 50 304 0.0 0.0 0.00 0.00 0.34 89 1006.6
20260505225049 50 304 0.0 0.0 0.00 0.00 0.33 89 1006.5
20260505224547 50 304 0.0 0.0 0.00 0.00 0.32 89 1006.6
20260505224047 50 304 0.0 0.0 0.00 0.00 0.32 89 1006.7
20260505223546 50 304 0.0 0.0 0.00 0.00 0.31 88 1006.7
20260505223047 50 306 0.0 0.0 0.00 0.00 0.30 88 1006.7
20260505222547 50 300 0.0 0.0 0.00 0.00 0.30 88 1006.6
20260505222047 50 284 0.0 0.0 0.00 0.00 0.28 89 1006.7
20260505221554 50 307 0.0 0.0 0.00 0.00 0.28 88 1006.6
20260505221044 50 308 0.0 0.0 0.00 0.00 0.27 88 1006.9
20260505220543 50 317 0.0 0.0 0.00 0.00 0.26 88 1006.4
20260505220053 50 323 0.0 0.0 0.00 0.00 0.25 88 1006.4
20260505215542 50 350 0.0 0.0 0.00 0.00 0.24 88 1006.4
20260505215042 51 325 0.0 0.0 0.00 0.00 0.24 87 1006.5
20260505214541 51 304 0.0 0.0 0.00 0.00 0.22 88 1006.5
20260505214041 51 296 0.0 0.0 0.00 0.00 0.22 88 1006.6
20260505213539 51 292 0.0 0.0 0.00 0.00 0.20 88 1006.5
20260505213038 51 287 0.0 0.0 0.00 0.00 0.19 87 1006.1